TimeCST,TemperatureF,Dew PointF,Humidity,Sea Level PressureIn,VisibilityMPH,Wind Direction,Wind SpeedMPH,Gust SpeedMPH,PrecipitationIn,Events,Conditions,WindDirDegrees,DateUTC
12:53 AM,30.0,25.0,82,30.27,10.0,Calm,Calm,-,N/A,,Clear,0,2013-02-20 06:53:00
1:53 AM,30.0,25.0,82,30.28,10.0,Calm,Calm,-,N/A,,Clear,0,2013-02-20 07:53:00
2:53 AM,30.9,26.1,82,30.28,10.0,Calm,Calm,-,N/A,,Clear,0,2013-02-20 08:53:00
3:53 AM,30.0,25.0,82,30.27,10.0,Calm,Calm,-,N/A,,Clear,0,2013-02-20 09:53:00
4:53 AM,30.0,25.0,82,30.26,10.0,Calm,Calm,-,N/A,,Clear,0,2013-02-20 10:53:00
5:53 AM,33.1,24.1,70,30.30,10.0,Calm,Calm,-,N/A,,Clear,0,2013-02-20 11:53:00
6:53 AM,34.0,21.9,61,30.32,10.0,Calm,Calm,-,N/A,,Clear,0,2013-02-20 12:53:00
7:53 AM,35.1,19.0,52,30.32,10.0,ESE,3.5,-,N/A,,Scattered Clouds,110,2013-02-20 13:53:00
8:53 AM,35.1,17.1,48,30.32,10.0,East,5.8,-,N/A,,Overcast,80,2013-02-20 14:53:00
9:53 AM,35.1,15.1,44,30.30,10.0,Variable,4.6,-,N/A,,Overcast,0,2013-02-20 15:53:00
10:53 AM,35.1,19.9,54,30.30,10.0,Calm,Calm,-,0.00,,Overcast,0,2013-02-20 16:53:00
11:53 AM,34.0,19.9,56,30.33,10.0,Variable,3.5,-,0.00,,Overcast,0,2013-02-20 17:53:00
12:08 PM,33.8,21.2,60,30.32,2.5,South,3.5,-,0.00,Snow,Light Snow,190,2013-02-20 18:08:00
12:21 PM,30.2,24.8,80,30.31,1.5,Variable,5.8,-,0.00,Snow,Light Snow,0,2013-02-20 18:21:00
12:33 PM,30.2,26.6,86,30.30,3.0,Variable,3.5,-,0.00,,Overcast,0,2013-02-20 18:33:00
12:53 PM,30.9,26.1,82,30.29,4.0,Variable,5.8,-,0.01,Snow,Light Snow,0,2013-02-20 18:53:00
1:35 PM,30.2,26.6,86,30.27,6.0,ESE,4.6,-,0.01,,Overcast,110,2013-02-20 19:35:00
1:53 PM,30.0,25.0,82,30.26,3.0,East,5.8,-,0.01,Snow,Light Snow,100,2013-02-20 19:53:00
2:05 PM,30.2,24.8,80,30.25,2.5,Calm,Calm,-,0.00,Snow,Light Snow,0,2013-02-20 20:05:00
2:12 PM,30.2,24.8,80,30.25,1.2,ESE,4.6,-,0.00,Snow,Light Snow,120,2013-02-20 20:12:00
2:21 PM,30.2,26.6,86,30.24,0.8,Calm,Calm,-,0.00,Snow,Light Snow,0,2013-02-20 20:21:00
2:44 PM,30.2,26.6,86,30.22,1.8,Variable,3.5,-,0.00,Snow,Light Snow,0,2013-02-20 20:44:00
2:47 PM,30.2,26.6,86,30.22,3.0,Calm,Calm,-,0.00,Snow,Light Snow,0,2013-02-20 20:47:00
2:53 PM,30.0,26.1,85,30.22,7.0,Variable,3.5,-,0.00,,Overcast,0,2013-02-20 20:53:00
3:25 PM,30.2,26.6,86,30.21,6.0,Variable,3.5,-,N/A,Rain,Light Freezing Rain,0,2013-02-20 21:25:00
3:31 PM,30.2,26.6,86,30.21,5.0,ESE,4.6,-,N/A,Snow,Light Snow,110,2013-02-20 21:31:00
3:44 PM,30.2,26.6,86,30.20,1.8,Variable,3.5,-,N/A,Snow,Light Snow,0,2013-02-20 21:44:00
3:53 PM,30.0,27.0,88,30.22,3.0,Calm,Calm,-,N/A,,Overcast,0,2013-02-20 21:53:00
4:53 PM,30.9,27.0,85,30.21,6.0,Calm,Calm,-,N/A,,Overcast,0,2013-02-20 22:53:00
5:28 PM,30.2,26.6,86,30.19,4.0,East,4.6,-,N/A,Rain,Light Freezing Rain,100,2013-02-20 23:28:00
5:42 PM,30.2,26.6,86,30.20,7.0,Variable,4.6,-,N/A,Rain,Light Freezing Rain,0,2013-02-20 23:42:00
5:53 PM,30.9,27.0,85,30.20,8.0,ESE,3.5,-,N/A,Rain,Light Freezing Rain,120,2013-02-20 23:53:00
6:12 PM,30.2,28.4,93,30.20,9.0,Calm,Calm,-,N/A,Rain,Light Freezing Rain,0,2013-02-21 00:12:00
6:38 PM,30.2,28.4,93,30.18,7.0,Calm,Calm,-,N/A,Rain,Light Freezing Rain,0,2013-02-21 00:38:00
6:53 PM,30.9,28.0,89,30.18,10.0,Calm,Calm,-,N/A,Rain,Light Freezing Rain,0,2013-02-21 00:53:00
7:05 PM,30.2,28.4,93,30.17,10.0,Variable,4.6,-,N/A,,Overcast,0,2013-02-21 01:05:00
7:53 PM,30.9,28.0,89,30.17,9.0,Variable,3.5,-,N/A,,Overcast,0,2013-02-21 01:53:00
8:07 PM,30.2,28.4,93,30.18,9.0,Variable,3.5,-,N/A,Rain,Light Freezing Rain,0,2013-02-21 02:07:00
8:27 PM,30.2,28.4,93,30.17,10.0,Variable,3.5,-,N/A,Rain,Light Freezing Rain,0,2013-02-21 02:27:00
8:36 PM,30.2,28.4,93,30.17,10.0,Calm,Calm,-,N/A,,Overcast,0,2013-02-21 02:36:00
8:46 PM,30.2,28.4,93,30.18,10.0,Calm,Calm,-,N/A,,Overcast,0,2013-02-21 02:46:00
8:53 PM,30.9,28.0,89,30.19,10.0,Variable,4.6,-,N/A,,Overcast,0,2013-02-21 02:53:00
9:13 PM,30.2,28.4,93,30.18,7.0,Variable,4.6,-,N/A,Rain,Light Freezing Rain,0,2013-02-21 03:13:00
9:31 PM,30.2,28.4,93,30.16,6.0,East,8.1,-,N/A,Rain,Light Freezing Rain,90,2013-02-21 03:31:00
9:53 PM,30.9,28.0,89,30.16,8.0,East,5.8,-,N/A,Rain,Light Freezing Rain,100,2013-02-21 03:53:00
10:53 PM,32.0,26.1,79,30.16,10.0,Calm,Calm,-,0.02,,Overcast,0,2013-02-21 04:53:00
11:53 PM,32.0,26.1,79,30.14,10.0,ENE,6.9,-,0.00,,Overcast,70,2013-02-21 05:53:00